When you browse on this site, cookies collect data to enhance your experience and personalize the content and advertising you see.
Visit our Privacy Policy to learn more. By continuing to use the site, you agree to this use of cookies and data.
  • en France
  • Liste des pays
  • À 7 jours
  • Température de l'eau
  • Carte météo
  • Widgets météo
  • user-avatar
    Se connecter

    Météo par heure à Burrel

    Ce jour, 27 Mai, Mercredi

    Heure Température Précipitation Vent Pression Humidité
    00:00 +9°C° 0 mm 3 m/s 735 mmHg 79%
    01:00 +9°C° 0 mm 3 m/s 735 mmHg 81%
    02:00 +9°C° 0 mm 3 m/s 735 mmHg 81%
    03:00 +9°C° 0 mm 3 m/s 735 mmHg 82%
    04:00 +9°C° 0 mm 3 m/s 735 mmHg 82%
    05:00 +10°C° 0 mm 3 m/s 736 mmHg 78%
    06:00 +12°C° 0 mm 3 m/s 736 mmHg 74%
    07:00 +13°C° 0 mm 3 m/s 736 mmHg 71%
    08:00 +14°C° 0 mm 3 m/s 736 mmHg 66%
    09:00 +17°C° 0 mm 3 m/s 736 mmHg 61%
    10:00 +18°C° 0 mm 4 m/s 736 mmHg 56%
    11:00 +18°C° 0.1 mm 3 m/s 736 mmHg 54%
    12:00 +19°C° 0.1 mm 3 m/s 736 mmHg 53%
    13:00 +20°C° 0.1 mm 3 m/s 736 mmHg 52%
    14:00 +19°C° 0.3 mm 3 m/s 735 mmHg 53%
    15:00 +19°C° 0.3 mm 3 m/s 735 mmHg 55%
    16:00 +19°C° 0.3 mm 4 m/s 735 mmHg 56%
    17:00 +17°C° 0.1 mm 3 m/s 735 mmHg 63%
    18:00 +16°C° 0.1 mm 3 m/s 735 mmHg 69%
    19:00 +14°C° 0.1 mm 2 m/s 735 mmHg 76%
    20:00 +13°C° 0 mm 2 m/s 735 mmHg 76%
    21:00 +13°C° 0 mm 2 m/s 736 mmHg 76%
    22:00 +12°C° 0 mm 2 m/s 736 mmHg 77%
    23:00 +12°C° 0 mm 2 m/s 736 mmHg 77%

    Demain, 28 Mai, Jeudi

    Heure Température Précipitation Vent Pression Humidité
    00:00 +12°C° 0 mm 2 m/s 736 mmHg 77%
    01:00 +10°C° 0 mm 2 m/s 736 mmHg 77%
    02:00 +10°C° 0 mm 2 m/s 736 mmHg 77%
    03:00 +10°C° 0 mm 2 m/s 735 mmHg 77%
    04:00 +10°C° 0 mm 2 m/s 735 mmHg 78%
    05:00 +13°C° 0 mm 2 m/s 735 mmHg 73%
    06:00 +14°C° 0 mm 2 m/s 735 mmHg 69%
    07:00 +16°C° 0 mm 2 m/s 735 mmHg 65%
    08:00 +17°C° 0 mm 2 m/s 735 mmHg 59%
    09:00 +19°C° 0 mm 2 m/s 735 mmHg 54%
    10:00 +20°C° 0 mm 2 m/s 735 mmHg 49%
    11:00 +21°C° 0.2 mm 3 m/s 735 mmHg 49%
    12:00 +21°C° 0.2 mm 3 m/s 734 mmHg 48%
    13:00 +21°C° 0.2 mm 3 m/s 734 mmHg 48%
    14:00 +21°C° 0.5 mm 3 m/s 733 mmHg 54%
    15:00 +20°C° 0.5 mm 3 m/s 733 mmHg 60%
    16:00 +19°C° 0.5 mm 3 m/s 733 mmHg 65%
    17:00 +18°C° 0.6 mm 2 m/s 733 mmHg 72%
    18:00 +16°C° 0.6 mm 1 m/s 733 mmHg 79%
    19:00 +15°C° 0.6 mm 1 m/s 733 mmHg 85%
    20:00 +14°C° 0.1 mm 1 m/s 733 mmHg 85%
    21:00 +14°C° 0.1 mm 1 m/s 733 mmHg 85%
    22:00 +13°C° 0.1 mm 1 m/s 734 mmHg 85%
    23:00 +13°C° 0 mm 1 m/s 733 mmHg 84%

    Après-demain, 29 Mai, Vendredi

    Heure Température Précipitation Vent Pression Humidité
    00:00 +12°C° 0 mm 1 m/s 733 mmHg 84%
    01:00 +12°C° 0 mm 1 m/s 733 mmHg 84%
    02:00 +12°C° 0 mm 1 m/s 733 mmHg 83%
    03:00 +12°C° 0 mm 1 m/s 733 mmHg 83%
    04:00 +12°C° 0 mm 1 m/s 732 mmHg 83%
    05:00 +13°C° 0 mm 1 m/s 733 mmHg 78%
    06:00 +15°C° 0 mm 1 m/s 733 mmHg 74%
    07:00 +16°C° 0 mm 1 m/s 733 mmHg 69%
    08:00 +19°C° 0.1 mm 1 m/s 733 mmHg 64%
    09:00 +20°C° 0.1 mm 1 m/s 733 mmHg 59%
    10:00 +22°C° 0.1 mm 1 m/s 733 mmHg 53%
    11:00 +21°C° 0.3 mm 2 m/s 733 mmHg 53%
    12:00 +21°C° 0.3 mm 2 m/s 732 mmHg 54%
    13:00 +21°C° 0.3 mm 3 m/s 732 mmHg 54%
    14:00 +21°C° 0.3 mm 3 m/s 732 mmHg 56%
    15:00 +20°C° 0.3 mm 3 m/s 732 mmHg 58%
    16:00 +20°C° 0.3 mm 2 m/s 731 mmHg 61%
    17:00 +18°C° 0.2 mm 2 m/s 731 mmHg 68%
    18:00 +16°C° 0.2 mm 1 m/s 732 mmHg 75%
    19:00 +14°C° 0.2 mm 1 m/s 732 mmHg 82%
    20:00 +14°C° 0 mm 1 m/s 732 mmHg 82%
    21:00 +14°C° 0 mm 1 m/s 732 mmHg 82%
    22:00 +13°C° 0 mm 1 m/s 733 mmHg 82%
    23:00 +13°C° 0 mm 1 m/s 732 mmHg 82%

    30 Mai, Samedi

    Heure Température Précipitation Vent Pression Humidité
    00:00 +12°C° 0 mm 0 m/s 732 mmHg 81%
    01:00 +11°C° 0 mm 0 m/s 732 mmHg 81%
    02:00 +11°C° 0 mm 0 m/s 732 mmHg 82%
    03:00 +12°C° 0 mm 1 m/s 732 mmHg 83%
    04:00 +12°C° 0 mm 1 m/s 732 mmHg 84%
    05:00 +13°C° 0.3 mm 1 m/s 732 mmHg 84%
    06:00 +13°C° 0.3 mm 1 m/s 732 mmHg 84%
    07:00 +14°C° 0.3 mm 1 m/s 732 mmHg 83%
    08:00 +15°C° 0.3 mm 1 m/s 732 mmHg 80%
    09:00 +15°C° 0.3 mm 1 m/s 732 mmHg 77%
    10:00 +16°C° 0.3 mm 1 m/s 733 mmHg 74%
    11:00 +18°C° 0.9 mm 1 m/s 732 mmHg 73%
    12:00 +18°C° 0.9 mm 2 m/s 732 mmHg 71%
    13:00 +19°C° 0.9 mm 2 m/s 732 mmHg 70%
    14:00 +18°C° 0.6 mm 2 m/s 732 mmHg 69%
    15:00 +18°C° 0.6 mm 2 m/s 732 mmHg 69%
    16:00 +18°C° 0.6 mm 2 m/s 732 mmHg 68%
    17:00 +18°C° 0.1 mm 1 m/s 731 mmHg 73%
    18:00 +15°C° 0.1 mm 1 m/s 731 mmHg 79%
    19:00 +13°C° 0.1 mm 0 m/s 731 mmHg 84%
    20:00 +14°C° 0 mm 1 m/s 732 mmHg 84%
    21:00 +13°C° 0 mm 1 m/s 732 mmHg 85%
    22:00 +13°C° 0 mm 1 m/s 732 mmHg 85%
    23:00 +13°C° 0 mm 1 m/s 732 mmHg 85%

    31 Mai, Dimanche

    Heure Température Précipitation Vent Pression Humidité
    00:00 +13°C° 0 mm 1 m/s 732 mmHg 85%
    01:00 +12°C° 0 mm 1 m/s 731 mmHg 84%
    02:00 +12°C° 0 mm 1 m/s 731 mmHg 84%
    03:00 +13°C° 0 mm 1 m/s 731 mmHg 84%
    04:00 +13°C° 0 mm 1 m/s 731 mmHg 83%
    05:00 +13°C° 0 mm 1 m/s 731 mmHg 82%
    06:00 +13°C° 0 mm 0 m/s 731 mmHg 81%
    07:00 +14°C° 0 mm 0 m/s 731 mmHg 81%
    08:00 +15°C° 0.2 mm 1 m/s 731 mmHg 80%
    09:00 +16°C° 0.2 mm 1 m/s 731 mmHg 79%
    10:00 +16°C° 0.2 mm 1 m/s 731 mmHg 78%
    11:00 +18°C° 0.2 mm 1 m/s 731 mmHg 73%
    12:00 +19°C° 0.2 mm 2 m/s 731 mmHg 68%
    13:00 +20°C° 0.2 mm 2 m/s 731 mmHg 63%
    14:00 +19°C° 0.6 mm 2 m/s 730 mmHg 65%
    15:00 +19°C° 0.6 mm 2 m/s 730 mmHg 68%
    16:00 +19°C° 0.6 mm 2 m/s 730 mmHg 70%
    17:00 +17°C° 0.3 mm 2 m/s 730 mmHg 76%
    18:00 +16°C° 0.3 mm 1 m/s 730 mmHg 82%
    19:00 +14°C° 0.3 mm 1 m/s 730 mmHg 87%
    20:00 +13°C° 0 mm 0 m/s 730 mmHg 88%
    21:00 +12°C° 0 mm 0 m/s 731 mmHg 89%
    22:00 +12°C° 0 mm 0 m/s 731 mmHg 90%
    23:00 +12°C° 0 mm 1 m/s 731 mmHg 90%

    1 Juin, Lundi

    Heure Température Précipitation Vent Pression Humidité
    00:00 +12°C° 0 mm 1 m/s 731 mmHg 90%
    01:00 +12°C° 0 mm 1 m/s 731 mmHg 90%
    02:00 +12°C° 0 mm 1 m/s 730 mmHg 90%
    03:00 +11°C° 0 mm 1 m/s 730 mmHg 90%
    04:00 +11°C° 0 mm 1 m/s 730 mmHg 90%
    05:00 +13°C° 0 mm 1 m/s 730 mmHg 85%
    06:00 +15°C° 0 mm 1 m/s 731 mmHg 80%
    07:00 +18°C° 0 mm 1 m/s 731 mmHg 75%
    08:00 +19°C° 0.1 mm 1 m/s 731 mmHg 70%
    09:00 +20°C° 0.1 mm 1 m/s 731 mmHg 65%
    10:00 +22°C° 0.1 mm 1 m/s 731 mmHg 60%
    11:00 +21°C° 0.5 mm 2 m/s 730 mmHg 61%
    12:00 +21°C° 0.5 mm 2 m/s 730 mmHg 62%
    13:00 +21°C° 0.5 mm 2 m/s 730 mmHg 63%
    14:00 +21°C° 0.5 mm 2 m/s 730 mmHg 65%
    15:00 +20°C° 0.5 mm 2 m/s 730 mmHg 68%
    16:00 +20°C° 0.5 mm 2 m/s 729 mmHg 70%
    17:00 +19°C° 0.4 mm 1 m/s 729 mmHg 76%
    18:00 +18°C° 0.4 mm 1 m/s 729 mmHg 82%
    19:00 +15°C° 0.4 mm 1 m/s 729 mmHg 89%
    20:00 +15°C° 0.1 mm 1 m/s 730 mmHg 89%
    21:00 +14°C° 0.1 mm 1 m/s 730 mmHg 88%
    22:00 +13°C° 0.1 mm 0 m/s 730 mmHg 88%
    23:00 +14°C° 0 mm 1 m/s 730 mmHg 88%
    Voir plus